{"data":{"norad_id":66702,"intl_designator":"2025-276AN","name":"IRIDE-MS1-EAGLET 2-8","alt_names":[],"object_type":"PAYLOAD","status":"ACTIVE","operator":null,"country":"IT","launch_date":"2025-11-28","launch_site_code":"AFWTR","launch_vehicle":null,"mission":null,"orbit_class":"UNKNOWN","rcs_meters":null,"size_class":null,"mass_kg":null,"dimensions":null,"purposes":[],"wikipedia_slug":null,"has_3d_model":false,"image_url":null,"decayed_at":null,"tle_current":{"epoch":"2026-09-20T22:28:18.709824Z","epoch_age_seconds":83310,"freshness":"FRESH","line1":"1 66702U 25276AN  26263.93632766  .00004784  00000+0  21854-3 0  9999","line2":"2 66702  97.4115 335.9545 0005344  62.6798 297.4982 15.21042084 44970","mean_motion":15.21042084,"eccentricity":0.0005344,"inclination_deg":97.4115,"raan_deg":335.9545,"arg_perigee_deg":62.6798,"mean_anomaly_deg":297.4982,"bstar":0.00021854,"rev_number":4497,"period_min":94.671936769371,"perigee_km":499.01894086735,"apogee_km":506.37317523979,"semimajor_km":6880.8330580536,"source":"CELESTRAK","updated_at":"2026-09-21T09:00:16.130058Z"}}}